Location: Unspecified
(0.0000°N, 0.0000°E)
Time: 03:52:32
(UTC+00:00)

Altair - Visible Passes

Search period start: 24 February 2017 00:00
Search period end: 06 March 2017 00:00
Orbit: 1501 x 1683 km, 47.2° (Epoch: 23 February)

Date Brightness Start Highest point End Pass type
(mag) Time Alt. Az. Time Alt. Az. Time Alt. Az.
24 Feb 7.9 20:10:43 10° NW 20:20:42 64° SW 20:29:39 13° SSE visible
24 Feb 9.8 22:23:57 10° WSW 22:26:00 11° SW 22:27:54 10° SSW visible
25 Feb 7.8 19:45:26 10° NW 19:55:31 71° SW 20:05:25 10° SSE visible
25 Feb 9.7 21:56:44 10° WSW 22:00:42 13° SW 22:04:38 10° SSW visible
26 Feb 7.7 19:20:11 10° NW 19:30:20 79° SW 19:40:19 10° SE visible
26 Feb 9.7 21:30:15 10° WSW 21:35:24 15° SW 21:40:32 10° SSW visible
27 Feb 7.7 18:54:57 10° NW 19:05:09 87° SW 19:15:11 10° SE visible
27 Feb 9.6 21:04:04 10° W 21:10:08 17° SW 21:16:09 10° S visible
28 Feb 8.8 05:41:37 10° SSW 05:50:01 40° SE 05:58:27 10° ENE visible
28 Feb 7.7 18:29:46 10° NW 18:39:58 85° NE 18:50:02 10° SE visible
28 Feb 9.5 20:38:05 10° W 20:44:52 20° SW 20:51:37 10° S visible
01 Mar 9.0 05:16:43 10° SSW 05:24:52 35° SE 05:33:01 10° ENE visible
01 Mar 9.5 20:12:13 10° W 20:19:37 23° SW 20:26:58 10° S visible
02 Mar 9.0 04:51:53 10° S 04:59:43 31° SE 05:07:31 10° ENE visible
02 Mar 9.4 19:46:27 10° W 19:54:23 26° SW 20:02:14 10° S visible
03 Mar 9.1 04:27:04 10° S 04:34:33 28° SE 04:41:58 10° ENE visible
03 Mar 9.3 19:20:47 10° WNW 19:29:09 29° SW 19:37:27 10° S visible
04 Mar 9.2 04:02:19 10° S 04:09:22 24° SE 04:16:21 10° E visible
04 Mar 9.2 18:55:11 10° WNW 19:03:56 33° SW 19:12:37 10° SSE visible
05 Mar 9.3 03:37:38 10° S 03:44:10 21° SE 03:50:38 10° E visible
05 Mar 7.4 05:39:38 10° SW 05:48:47 75° NW 05:58:00 10° NE visible
05 Mar 9.1 18:29:38 10° WNW 18:38:43 37° SW 18:47:45 10° SSE visible
